軌道要素
Epoch 2003 July 20.0 TT = JDT 2452840.5
T 2003 July 12.89169 TT MPC
q 2.4867516 (2000.0) P Q
z +0.0007636 Peri. 207.32521 +0.24899312 +0.93060977
+/-0.0000109 Node 281.88677 +0.93111109 -0.15378756
e 0.9981012 Incl. 164.08881 +0.26652310 -0.33213679
>From 620 observations 2002 Feb. 21-2003 Feb. 13, mean residual 0".62.
|